| time (UTC) | temp F | wind direction | speed knots | gust knots | rain 1hr in | rain 24hr in | rain mn in | humidity % | barometer mb |
| 20260506101524 | 41 | 350 | 2.6 | 9.6 | 0.00 | 0.00 | 0.00 | 79 | 1009.8 |
| 20260506100025 | 41 | 304 | 1.7 | 7.8 | 0.00 | 0.00 | 0.00 | 78 | 1009.7 |
| 20260506094521 | 42 | 342 | 2.6 | 10.4 | 0.00 | 0.00 | 0.00 | 75 | 1009.7 |
| 20260506093015 | 43 | 355 | 2.6 | 7.8 | 0.00 | 0.00 | 0.00 | 74 | 1009.6 |
| 20260506091513 | 43 | 350 | 2.6 | 7.0 | 0.00 | 0.00 | 0.00 | 74 | 1009.8 |
| 20260506090011 | 44 | 38 | 1.7 | 4.3 | 0.00 | 0.00 | 0.00 | 74 | 1009.6 |
| 20260506084509 | 44 | 350 | 0.0 | 0.0 | 0.00 | 0.00 | 0.00 | 76 | 1010.0 |
| 20260506083009 | 44 | 15 | 2.6 | 4.3 | 0.00 | 0.00 | 0.00 | 76 | 1009.9 |
| 20260506081506 | 43 | 360 | 0.0 | 4.3 | 0.00 | 0.00 | 0.00 | 76 | 1010.2 |
| 20260506073005 | 43 | 355 | 0.9 | 5.2 | 0.00 | 0.00 | 0.00 | 78 | 1009.9 |
| 20260506071505 | 43 | 35 | 1.7 | 4.3 | 0.00 | 0.00 | 0.00 | 78 | 1009.5 |
| 20260506061556 | 44 | 38 | 0.0 | 4.3 | 0.00 | 0.00 | 0.00 | 79 | 1009.6 |
| 20260506060119 | 44 | 5 | 0.9 | 2.6 | 0.00 | 0.00 | 0.00 | 79 | 1009.7 |
| 20260506044558 | 43 | 26 | 0.0 | 0.0 | 0.00 | 0.00 | 0.00 | 81 | 1010.1 |
| 20260506043047 | 43 | 26 | 0.0 | 0.0 | 0.00 | 0.00 | 0.00 | 81 | 1009.9 |
| 20260506041549 | 44 | 26 | 0.0 | 0.0 | 0.00 | 0.00 | 0.00 | 80 | 1009.9 |
| 20260506040044 | 44 | 26 | 0.0 | 0.0 | 0.00 | 0.00 | 0.00 | 78 | 1009.8 |
| 20260506034542 | 44 | 26 | 0.0 | 0.0 | 0.00 | 0.00 | 0.00 | 77 | 1009.9 |
| 20260506033040 | 44 | 26 | 0.0 | 0.0 | 0.00 | 0.00 | 0.00 | 76 | 1009.9 |
| 20260506031541 | 45 | 26 | 0.0 | 0.0 | 0.00 | 0.00 | 0.00 | 76 | 1010.0 |
| 20260506030039 | 45 | 26 | 0.0 | 0.0 | 0.00 | 0.00 | 0.00 | 76 | 1009.8 |
| 20260506024545 | 45 | 20 | 0.0 | 3.5 | 0.00 | 0.00 | 0.00 | 75 | 1009.7 |
| 20260506023032 | 46 | 28 | 0.0 | 0.0 | 0.00 | 0.00 | 0.00 | 73 | 1009.7 |
| 20260506021531 | 46 | 355 | 0.0 | 0.0 | 0.00 | 0.00 | 0.00 | 71 | 1009.6 |
| 20260506020031 | 46 | 349 | 0.0 | 0.0 | 0.00 | 0.00 | 0.00 | 72 | 1009.8 |
| 20260506014535 | 46 | 348 | 0.0 | 0.0 | 0.00 | 0.00 | 0.00 | 72 | 1009.8 |
| 20260506013028 | 46 | 348 | 0.0 | 0.0 | 0.00 | 0.00 | 0.00 | 72 | 1009.4 |
| 20260505224524 | 51 | 187 | 1.7 | 7.0 | 0.00 | 0.00 | 0.00 | 58 | 1008.7 |
| 20260505221526 | 51 | 225 | 2.6 | 4.3 | 0.00 | 0.00 | 0.00 | 57 | 1008.8 |
| 20260505211628 | 52 | 231 | 1.7 | 6.1 | 0.00 | 0.00 | 0.00 | 56 | 1008.7 |
| 20260505210130 | 51 | 219 | 2.6 | 8.7 | 0.00 | 0.00 | 0.00 | 56 | 1008.5 |
| 20260505194634 | 51 | 195 | 4.3 | 7.8 | 0.00 | 0.00 | 0.00 | 53 | 1008.3 |
| 20260505193134 | 50 | 262 | 2.6 | 6.1 | 0.00 | 0.00 | 0.00 | 54 | 1008.3 |
| 20260505183137 | 49 | 294 | 0.0 | 2.6 | 0.00 | 0.00 | 0.00 | 55 | 1008.1 |
| 20260505174640 | 48 | 313 | 2.6 | 4.3 | 0.00 | 0.00 | 0.00 | 58 | 1007.6 |
| 20260505173045 | 48 | 309 | 1.7 | 7.0 | 0.00 | 0.00 | 0.00 | 58 | 1007.4 |
| 20260505171643 | 48 | 277 | 1.7 | 7.0 | 0.00 | 0.00 | 0.00 | 58 | 1007.5 |
| 20260505164645 | 48 | 262 | 2.6 | 8.7 | 0.00 | 0.00 | 0.00 | 56 | 1007.4 |
| 20260505163145 | 49 | 276 | 1.7 | 9.6 | 0.00 | 0.00 | 0.00 | 57 | 1007.3 |
| 20260505153048 | 49 | 280 | 2.6 | 6.1 | 0.00 | 0.00 | 0.00 | 58 | 1006.9 |
| 20260505151549 | 49 | 307 | 0.9 | 7.0 | 0.00 | 0.00 | 0.00 | 62 | 1006.9 |
| 20260505120152 | 45 | 319 | 2.6 | 5.2 | 0.00 | 0.00 | 0.00 | 76 | 1004.0 |
| 20260505113152 | 44 | 316 | 0.9 | 4.3 | 0.00 | 0.00 | 0.00 | 79 | 1003.5 |
| 20260505111654 | 44 | 318 | 2.6 | 7.0 | 0.00 | 0.00 | 0.00 | 79 | 1002.9 |